This demonstration page uses our WeatherBlox Daily Observations layout. Learn more.

Left ArrowRight Arrow

39.08367, -84.50855

Hourly Observations for January 23, 2020

Temp ( °F °C ) Dew Point ( °F °C ) Humidity (%) Winds ( mph kmh ) Pressure ( in mb ) Visibility ( mi km ) Precip ( " mm )
12:53 am 00:53 Clear 27 -2.8 22 -5.6 81 81 Calm 30.27 1025 10 16 0.00 0.00
1:53 am 01:53 Clear 27 -2.8 22 -5.6 81 81 Calm 30.26 1025 10 16 0.00 0.00
2:53 am 02:53 Clear 27 -2.8 22 -5.6 81 81 Calm 30.25 1025 10 16 0.00 0.00
3:53 am 03:53 Clear 28 -2.2 24 -4.4 85 85 Calm 30.24 1024 10 16 0.00 0.00
4:53 am 04:53 Clear 28 -2.2 24 -4.4 85 85 Calm 30.24 1024 10 16 0.00 0.00
5:53 am 05:53 Clear 28 -2.2 23 -5 81 81 Calm 30.24 1024 10 16 0.00 0.00
6:53 am 06:53 Clear 27 -2.8 23 -5 85 85 Calm 30.25 1025 10 16 0.00 0.00
7:53 am 07:53 Sunny 28 -2.2 24 -4.4 85 85 Calm 30.24 1024 10 16 0.00 0.00
8:53 am 08:53 Sunny 30 -1.1 24 -4.4 79 79 Calm 30.25 1025 10 16 0.00 0.00
9:53 am 09:53 Mostly Sunny 33 0.6 26 -3.3 75 75 Calm 30.25 1025 10 16 0.00 0.00
10:53 am 10:53 Cloudy 38 3.3 27 -2.8 65 65 Calm 30.25 1025 10 16 0.00 0.00
11:53 am 11:53 Cloudy 40 4.4 24 -4.4 53 53 SW 3 6 30.23 1024 10 16 0.00 0.00
12:53 pm 12:53 Cloudy 46 7.8 23 -5 40 40 Calm 30.19 1022 10 16 0.00 0.00
4:53 pm 16:53 Partly Cloudy 48 8.9 22 -5.6 36 36 ENE 3 6 30.13 1020 10 16 0.00 0.00
5:53 pm 17:53 Cloudy 46 7.8 23 -5 40 40 NNE 5 7 30.11 1020 10 16 0.00 0.00
6:53 pm 18:53 Cloudy with Light Rain 40 4.4 32 0 73 73 NNE 3 6 30.11 1020 10 16 0.00 0.00
7:53 pm 19:53 Cloudy 38 3.3 34 1.1 86 86 SSW 3 6 30.10 1019 10 16 0.00 0.00
8:53 pm 20:53 Cloudy with Light Rain 39 3.9 35 1.7 86 86 Calm 30.10 1019 8 13 0.03 0.76
9:53 pm 21:53 Cloudy with Light Rain 38 3.3 36 2.2 93 93 Calm 30.08 1019 10 16 0.02 0.51
10:53 pm 22:53 Cloudy with Light Rain 38 3.3 37 2.8 97 97 Calm 30.06 1018 6 10 0.02 0.51
11:53 pm 23:53 Cloudy 38 3.3 37 2.8 97 97 Calm 30.05 1018 8 13 0.02 0.51

Powered by AerisWeather